SCP
0 0 0 0 0 0 0 0 0 0 0 0 0 0 0 0 0 0 0 0 0 0 0 0 0 0 0 0 0 0 0 0 0 0 0 0 0 0 0 0 0 0 0
0 0 0 0 0 0 0 0 0 0 0 0 0 0 0 0 0 0 0 0 0 0 0 0 0 0 0 0 0 0 0 0 0 0 0 0 0 0 0 0 0 0 0
0 0 0 0 0 0 0 0 0 0 0 0 0 0 0 0 0 0 0 0 0 0 0 0 0 0 0 0 0 0 0 0 0 0 0 0 0 0 0 0 0 0 0
0 0 0 0 0 0 0 0 0 0 0 0 0 0 0 0 0 0 0 0 0 0 0 0 0 0 0 0 0 0 0 0 0 0 0 0 0 0 0 0 0 0 0
0 0 0 0 0 0 0 0 0 0 0 0 0 0 0 0 0 0 0 0 0 0 0 0 0 0 0 0 0 0 0 0 0 0 0 0 0 0 0 0 0 0 0
0 0 0 0 0 0 0 0 0 0 0 0 0 0 0 0 0 0 0 0 0 0 0 0 0 0 0 0 0 0 0 0 0 0 0 0 0 0 0 0 0 0 0
0 0 0 0 0 0 0 0 0 0 0 0 0 0 0 0 0 0 0 0 0 0 0 0 0 0 0 0 0 0 0 0 0 0 0 0 0 0 0 0 0 0 0
0 0 0 0 0 0 0 0 0 0 0 0 0 0 0 0 0 0 0 0 0 0 0 0 0 0 0 0 0 0 0 0 0 0 0 0 0 0 0 0 0 0 0
0 0 0 0 0 0 0 0 0 0 0 0 0 0 0 0 0 0 0 0 0 0 0 0 0 0 0 0 0 0 0 0 0 0 0 0 0 0 0 0 0 0 0
0 0 0 0 0 0 0 0 0 0 0 0 0 0 0 0 0 0 0 0 0 0 0 0 0 0 0 0 0 0 0 0 0 0 0 0 0 0 0 0 0 0 0
0 0 0 0 0 0 0 0 0 0 0 0 0 0 0 0 0 0 0 0 0 0 0 0 0 0 0 0 0 0 0 0 0 0 0 0 0 0 0 0 0 0 0
0 0 0 0 0 0 0 0 0 0 0 0 0 0 0 0 0 0 0 0 0 0 0 0 0 0 0 0 0 0 0 0 0 0 0 0 0 0 0 0 0 0 0
0 0 0 0 0 0 0 0 0 0 0 0 0 0 0 0 0 0 0 0 0 0 0 0 0 0 0 0 0 0 0 0 0 0 0 0 0 0 0 0 0 0 0
0 0 0 0 0 0 0 0 0 0 0 0 0 0 0 0 0 0 0 0 0 0 0 0 0 0 0 0 0 0 0 0 0 0 0 0 0 0 0 0 0 0 0
0 0 0 0 0 0 0 0 0 0 0 0 0 0 0 0 0 0 0 0 0 0 0 0 0 0 0 0 0 0 0 0 0 0 0 0 0 0 0 0 0 0 0
0 0 0 0 0 0 0 0 0 0 0 0 0 0 0 0 0 0 0 0 0 0 0 0 0 0 0 0 0 0 0 0 0 0 0 0 0 0 0 0 0 0 0
0 0 0 0 0 0 0 0 0 0 0 0 0 0 0 0 0 0 0 0 0 0 0 0 0 0 0 0 0 0 0 0 0 0 0 0 0 0 0 0 0 0 0
0 0 0 0 0 0 0 0 0 0 0 0 0 0 0 0 0 0 0 0 0 0 0 0 0 0 0 0 0 0 0 0 0 0 0 0 0 0 0 0 0 0 0
0 0 0 0 0 0 0 0 0 0 0 0 0 0 0 0 0 0 0 0 0 0 0 0 0 0 0 0 0 0 0 0 0 0 0 0 0 0 0 0 0 0 0
0 0 0 0 0 0 0 0 0 0 0 0 0 0 0 0 0 0 0 0 0 0 0 0 0 0 0 0 0 0 0 0 0 0 0 0 0 0 0 0 0 0 0
0 0 0 0 0 0 0 0 0 0 0 0 0 0 0 0 0 0 0 0 0 0 0 0 0 0 0 0 0 0 0 0 0 0 0 0 0 0 0 0 0 0 0
0 0 0 0 0 0 0 0 0 0 0 0 0 0 0 0 0 0 0 0 0 0 0 0 0 0 0 0 0 0 0 0 0 0 0 0 0 0 0 0 0 0 0
0 0 0 0 0 0 0 0 0 0 0 0 0 0 0 0 0 0 0 0 0 0 0 0 0 0 0 0 0 0 0 0 0 0 0 0 0 0 0 0 0 0 0
0 0 0 0 0 0 0 0 0 0 0 0 0 0 0 0 0 0 0 0 0 0 0 0 0 0 0 0 0 0 0 0 0 0 0 0 0 0 0 0 0 0 0
0 0 0 0 0 0 0 0 0 0 0 0 0 0 0 0 0 0 0 0 0 0 0 0 0 0 0 0 0 0 0 0 0 0 0 0 0 0 0 0 0 0 0
0 0 0 0 0 0 0 0 0 0 0 0 0 0 0 0 0 0 0 0 0 0 0 0 0 0 0 0 0 0 0 0 0 0 0 0 0 0 0 0 0 0 0
Wind_Speed
1 1 1 1 1 1 2 2 2 2 3 3 3 4 4 4 4 4 2 3 5 7 7 8 8 8 8 7 7 7 7 7 7 7 7 8 7 7 7 7 7 7 8
1 2 2 2 2 2 2 2 3 3 3 3 4 4 5 5 5 5 4 4 5 6 7 8 8 7 7 7 7 6 7 7 7 7 7 7 7 8 8 8 8 8 9
2 2 2 2 1 2 2 2 3 3 3 3 4 4 4 5 5 6 5 4 4 4 5 7 7 6 6 6 7 6 6 7 7 7 7 7 7 8 8 8 8 8 9
2 2 2 2 1 1 2 2 2 3 3 4 4 4 4 4 6 6 5 5 4 4 4 5 6 6 6 7 7 7 7 8 8 8 8 8 8 9 9 9 9 9 10
2 2 2 1 2 1 2 2 2 3 4 4 4 4 5 5 5 5 6 5 5 4 4 3 4 6 7 7 8 8 8 8 9 9 10 10 10 10 10 10 10 11 11
1 1 1 1 1 2 2 2 3 3 3 4 4 5 5 5 5 5 5 5 4 5 5 5 4 4 6 7 8 9 10 10 10 10 10 11 11 11 12 12 12 12 12
1 1 1 1 1 2 2 2 2 3 3 3 3 4 5 5 5 4 4 4 4 5 5 5 4 4 4 6 8 9 11 11 12 11 12 12 13 13 13 14 14 13 13
1 1 1 1 2 2 3 3 2 3 3 2 3 4 4 4 3 4 4 4 5 4 4 5 5 6 6 5 5 8 10 12 13 13 13 13 14 14 15 14 14 14 14
1 1 1 2 2 2 2 3 3 4 3 3 3 3 3 4 3 3 5 4 5 4 4 5 6 6 7 6 5 5 8 11 12 13 13 13 14 14 15 14 14 14 14
2 2 2 2 2 2 3 3 3 4 4 4 3 4 4 4 4 4 3 4 5 6 6 5 6 6 6 5 5 7 8 10 12 13 15 15 15 15 15 15 15 15 15
2 2 2 2 2 2 3 3 3 4 4 4 4 3 4 5 6 6 6 5 5 5 5 6 5 5 6 6 5 6 9 10 12 14 15 16 16 16 16 15 15 15 15
1 2 2 2 3 3 3 3 4 5 4 5 5 4 4 4 4 5 7 7 6 5 6 6 5 5 5 5 7 8 10 11 12 14 14 15 15 16 16 16 15 15 15
1 2 2 3 3 3 3 4 4 5 5 5 5 4 5 5 5 5 6 7 8 6 6 5 5 5 5 5 6 9 10 11 12 13 14 14 14 14 15 15 16 16 16
2 2 3 3 3 3 3 3 3 4 4 5 5 6 5 5 5 5 5 6 7 6 6 6 4 5 5 5 7 10 8 10 12 12 13 13 13 13 14 14 14 14 14
2 2 3 3 3 3 3 4 3 4 4 4 5 5 5 5 4 5 5 6 6 7 7 6 4 5 5 5 7 8 8 10 12 12 12 12 11 11 11 11 11 11 12
2 3 3 3 3 3 3 3 3 4 4 4 4 5 6 5 5 5 5 5 6 7 7 5 6 6 7 6 8 8 9 11 11 11 11 11 11 11 11 11 11 10 10
2 2 3 3 3 3 3 3 4 4 4 4 4 5 6 6 5 5 5 5 6 6 8 7 6 7 8 8 7 7 7 8 7 10 11 11 11 10 10 11 11 10 11
2 2 2 3 3 3 3 3 3 3 4 4 5 5 6 5 6 6 5 6 6 6 7 9 7 7 8 8 8 8 7 6 7 9 10 11 11 11 10 10 11 10 10
2 2 2 2 2 3 3 3 3 3 4 4 4 5 6 6 7 6 6 6 6 6 6 7 8 7 6 6 7 7 8 6 7 7 9 9 10 10 10 11 11 11 10
1 2 2 2 2 3 3 3 3 3 4 4 4 5 5 6 6 7 6 7 7 6 6 7 7 6 6 6 6 6 6 6 6 6 7 7 8 9 10 11 11 10 10
1 2 2 2 2 2 2 3 3 3 4 4 4 5 5 6 8 7 6 6 6 6 6 6 6 6 6 5 6 5 7 6 7 6 6 6 6 6 6 8 9 9 10
1 1 2 2 2 2 3 5 5 4 4 4 5 5 5 6 7 8 9 9 8 7 6 6 6 7 7 7 6 6 6 7 6 4 6 7 6 6 5 5 6 8 9
1 2 2 2 3 3 5 5 5 4 4 5 5 5 4 5 7 6 7 9 8 9 10 8 8 8 8 7 7 8 7 8 8 6 6 7 6 6 6 5 8 8 9
2 2 2 3 3 3 5 5 5 4 4 5 5 5 6 6 6 7 7 7 7 7 8 7 7 8 8 8 8 8 8 8 8 6 5 7 6 7 6 6 7 8 9
2 2 2 3 3 4 5 5 5 4 4 5 5 5 6 6 8 9 7 7 8 7 8 10 11 11 11 11 9 6 6 6 7 5 4 5 5 6 6 6 6 7 7
2 2 3 3 4 4 4 5 6 3 4 4 5 5 6 8 9 9 6 7 8 8 8 8 9 8 8 8 8 7 6 6 6 5 3 4 4 4 5 4 4 5 5
Wind_Direction
198 186 197 206 223 226 219 231 237 245 255 257 259 266 269 271 271 267 260 257 275 278 275 275 275 274 272 268 265 266 264 263 258 253 251 251 251 249 247 249 249 250 251
228 212 202 209 225 226 232 240 246 250 252 260 268 271 273 273 268 270 274 254 252 269 276 276 278 275 275 271 268 264 263 263 262 259 257 254 251 251 254 253 254 254 254
236 229 221 218 227 243 240 246 249 253 258 261 265 271 274 274 273 270 273 269 257 246 263 275 277 276 270 269 270 268 265 264 263 263 262 263 259 254 254 257 258 257 258
235 227 220 226 233 243 244 242 252 260 260 266 271 271 268 268 268 268 268 262 262 257 245 263 278 277 276 272 272 270 266 264 263 262 262 262 263 259 258 257 261 262 260
226 231 233 238 242 245 255 254 252 261 267 272 276 274 271 266 264 262 261 257 256 258 257 248 263 272 274 273 274 271 270 266 263 262 262 263 262 258 258 258 261 263 263
222 230 237 246 252 249 249 260 261 264 269 275 282 281 274 266 255 256 258 252 248 250 256 262 259 254 260 271 273 273 272 268 265 263 263 263 262 258 257 256 258 260 262
226 213 244 241 244 248 250 254 261 267 271 280 277 282 271 256 253 253 254 254 255 256 257 261 263 270 261 260 266 273 275 274 269 265 262 261 261 260 258 257 258 257 258
301 242 257 255 250 252 248 249 252 260 263 264 270 280 275 256 240 254 256 256 265 266 267 271 270 271 275 269 268 275 278 277 275 270 266 265 264 262 261 261 260 258 257
356 310 267 266 257 250 247 253 249 251 256 254 255 265 275 276 300 252 253 258 267 273 276 278 275 277 274 273 273 273 281 284 282 279 273 268 266 265 264 263 263 263 261
342 323 300 277 273 261 255 255 253 256 253 255 253 253 269 287 279 282 261 263 271 273 274 275 277 276 277 278 278 285 286 286 285 285 281 274 270 268 267 266 264 263 262
333 320 302 284 274 266 262 259 255 254 253 255 257 259 261 264 261 269 276 279 278 273 280 279 278 278 278 275 276 289 292 286 284 285 283 279 276 273 271 268 267 266 263
312 317 302 283 278 273 267 262 258 256 256 255 257 254 256 258 259 265 273 281 283 283 280 274 273 276 278 279 280 296 294 289 286 284 283 279 279 279 275 273 270 269 268
289 295 297 289 282 279 275 267 260 257 255 255 254 256 257 261 268 267 271 279 281 283 277 267 268 276 280 283 286 300 289 287 287 284 282 278 277 278 276 274 272 270 269
266 280 286 283 280 277 276 267 262 259 258 254 256 258 258 260 263 263 265 277 283 277 268 275 279 277 280 286 295 297 289 289 288 287 285 280 278 278 277 274 272 269 268
275 275 275 275 280 279 272 269 260 259 261 260 259 258 258 261 261 264 266 264 271 279 279 284 283 281 286 287 295 292 293 296 293 288 288 287 283 281 282 281 277 274 272
277 277 277 278 278 279 275 271 270 269 265 261 263 261 260 263 265 264 263 265 263 267 275 283 286 291 294 290 296 293 293 301 295 293 291 290 289 288 286 282 278 276 276
272 275 277 278 278 278 280 276 270 267 262 263 264 265 269 268 268 267 266 264 260 259 268 280 285 289 291 290 294 294 294 292 292 293 294 293 290 288 287 284 280 275 273
276 280 280 277 283 286 284 281 281 273 267 269 271 270 271 275 271 270 267 266 266 264 265 275 282 285 285 288 292 293 295 292 290 292 290 289 288 286 285 282 277 272 270
278 286 281 281 286 291 286 283 280 279 278 280 282 281 281 277 275 274 270 269 268 267 266 270 278 285 289 288 293 293 294 291 290 290 286 287 285 285 286 285 278 272 270
273 285 292 297 298 294 290 285 284 285 284 286 286 285 285 284 283 283 276 270 268 268 267 270 277 284 288 290 291 293 294 291 292 292 293 293 292 287 283 283 276 268 267
283 289 294 299 293 287 287 288 284 281 282 287 288 289 289 291 292 289 285 287 280 274 273 273 277 283 287 295 293 294 291 294 293 289 293 292 291 287 285 282 277 269 265
275 285 289 292 293 293 302 293 290 283 282 283 288 290 290 288 291 288 288 287 283 277 276 276 276 278 283 288 289 290 290 291 291 293 292 291 290 286 286 283 289 285 275
269 278 285 291 297 304 304 302 300 292 290 289 289 291 292 296 294 290 291 289 287 281 274 273 274 276 280 284 287 286 283 285 284 290 287 285 288 286 287 288 288 284 283
267 271 281 290 295 302 308 309 302 293 291 292 292 294 297 300 300 299 296 295 293 290 282 273 271 276 278 280 276 276 278 280 281 282 278 279 286 289 295 288 288 283 283
270 276 284 288 290 297 307 306 303 293 290 294 296 298 299 298 305 302 298 296 296 294 294 287 283 284 286 286 284 279 275 273 280 283 276 272 282 293 291 285 287 283 280
268 278 281 284 287 292 306 309 302 290 291 296 298 298 299 301 307 308 298 296 295 297 301 301 290 285 283 281 277 268 270 271 280 280 272 272 280 294 291 283 290 290 285